Regional Weather Roundup
Issued by NWS

Home | Current Version | Previous Version | Text Only | Print | Product List | Glossary On
Versions: 1 2 3 4 5 6 7 8 9 10 11 12 13 14 15 16 17 18 19 20 21 22 23 24 25 26 27 28 29 30 31 32 33 34 35 36 37 38 39 40 41 42 43 44 45 46 47 48 49 50
000
ASUS43 KOAX 241802
RWRNE

WEATHER ROUNDUP FOR NEBRASKA
NATIONAL WEATHER SERVICE OMAHA NE
100 PM CDT THU APR 24 2014

NOTES: SATELLITE DATA IS BEING USED TO AUGMENT CLOUD COVER ABOVE
       12000 FEET.
       "FAIR" INDICATES FEW OR NO CLOUDS BELOW 12,000 FEET WITH NO
       SIGNIFICANT WEATHER AND/OR OBSTRUCTIONS TO VISIBILITY.

  * THESE STATIONS DO NOT REPORT WEATHER SUCH AS RAIN...SNOW OR FOG.

NEZ001>004-019>022-054>056-241900-
NEBRASKA PANHANDLE

CITY           SKY/WX    TMP DP  RH WIND       PRES   REMARKS
SCOTTSBLUFF    SUNNY     61  15  16 W21G28    29.92F
6HR MIN TEMP:  29; 6HR MAX TEMP:  62;

ALLIANCE       SUNNY     59  16  18 MISG      29.90F
6HR MIN TEMP:  28; 6HR MAX TEMP:  61;

CHADRON        SUNNY     62  22  21 W18G25    29.87F
6HR MIN TEMP:  32; 6HR MAX TEMP:  62;

KIMBALL        SUNNY     57  11  16 NW17G29   29.93F
SIDNEY         SUNNY     60  14  16 NW15G30   29.94F
6HR MIN TEMP:  34; 6HR MAX TEMP:  61;

$$

NEZ057>060-069>072-079>082-241900-
SOUTHWEST NEBRASKA

CITY           SKY/WX    TMP DP  RH WIND       PRES   REMARKS
NORTH PLATTE   SUNNY     65  23  20 NW18      29.87F
6HR MIN TEMP:  45; 6HR MAX TEMP:  65;

IMPERIAL       SUNNY     64  12  13 NW17G28   29.92F
6HR MIN TEMP:  44; 6HR MAX TEMP:  64;

LEXINGTON      SUNNY     67  20  16 NW21G32   29.85S
MCCOOK         SUNNY     67  19  16 N20       29.89F
6HR MIN TEMP:  49; 6HR MAX TEMP:  67;

OGALLALA       SUNNY     62  11  13 NW18G26   29.91F
$$

NEZ005>010-023>029-035>040-094-241900-
NORTH CENTRAL NEBRASKA

CITY           SKY/WX    TMP DP  RH WIND       PRES   REMARKS
VALENTINE      SUNNY     64  20  18 W21G30    29.83F
6HR MIN TEMP:  41; 6HR MAX TEMP:  64;

AINSWORTH      SUNNY     64  18  17 NW15G30   29.83S
BROKEN BOW     SUNNY     65  16  15 N20G33    29.83S
6HR MIN TEMP:  47; 6HR MAX TEMP:  66;

O`NEILL        SUNNY     66  12  12 NW28G33   29.79F
ORD            SUNNY     67  22  18 NW25G36   29.79S
6HR MIN TEMP:  49; 6HR MAX TEMP:  67;

THEDFORD       SUNNY     65  14  13 NW14G29   29.85F
$$

NEZ041-046>049-061>064-073>077-083>087-241900-
SOUTH CENTRAL NEBRASKA

CITY           SKY/WX    TMP DP  RH WIND       PRES   REMARKS
GRAND ISLAND   FAIR      65  35  33 N23G36    29.81S
6HR MIN TEMP:  50; 6HR MAX TEMP:  65;

AURORA         FAIR      63  37  38 N22G29    29.81S
HASTINGS       FAIR      63  34  33 N21       29.83R
6HR MIN TEMP:  51; 6HR MAX TEMP:  63;

HEBRON         CLOUDY    59  42  53 N14G23    29.81S
HOLDREGE       FAIR      64  28  26 N16G25    29.85S
KEARNEY *      FAIR      64  28  25 N20G30    29.84S
YORK           FAIR      61  45  55 N15G24    29.80S
$$

NEZ011>018-030>034-042>045-241900-
NORTHEAST NEBRASKA

CITY           SKY/WX    TMP DP  RH WIND       PRES   REMARKS
NORFOLK        FAIR      63  41  44 N22       29.75S
6HR MIN TEMP:  51; 6HR MAX TEMP:  63; 6HR PCP: TRACE;

ALBION         FAIR      64  30  27 N20G33    29.77S
BLAIR          CLOUDY    56  47  71 N15       29.73R
COLUMBUS *     FAIR      61  45  55 N15G22    29.78S
FREMONT        PTSUNNY   56  49  75 NW13      29.76R
TEKAMAH        CLOUDY    57  48  72 N13       29.74R
6HR MIN TEMP:  49; 6HR MAX TEMP:  58;

$$

NEZ050>053-065>068-078-088>093-241900-
SOUTHEAST NEBRASKA

CITY           SKY/WX    TMP DP  RH WIND       PRES   REMARKS
LINCOLN        CLOUDY    61  45  55 N16       29.78R
6HR MIN TEMP:  51; 6HR MAX TEMP:  61; 6HR PCP: TRACE;

OMAHA EPPLEY   CLOUDY    57  50  77 NW10      29.73R
6HR MIN TEMP:  49; 6HR MAX TEMP:  57; 6HR PCP:  0.11;

BEATRICE       CLOUDY    58  48  67 NW12      29.78R
FALLS CITY     RAIN      55  54  96 NW15      29.71R FOG
6HR MIN TEMP:  53; 6HR MAX TEMP:  57; 6HR PCP:  0.33;

NEBRASKA CITY  CLOUDY    56  51  84 N12       29.75R
PLATTSMOUTH    CLOUDY    55  49  78 NW14      29.74S
$$

NEZ044-045-051>053-067-241900-
OMAHA AREA

CITY           SKY/WX    TMP DP  RH WIND       PRES   REMARKS
OMAHA EPPLEY   CLOUDY    57  50  77 NW10      29.73R
6HR MIN TEMP:  49; 6HR MAX TEMP:  57; 6HR PCP:  0.11;

BLAIR          CLOUDY    56  47  71 N15       29.73R
FREMONT        PTSUNNY   56  49  75 NW13      29.76R
MILLARD        CLOUDY    56  48  73 NW10      29.74R
OFFUTT AFB     FAIR      57  53  86 NW10      29.73S
PLATTSMOUTH    CLOUDY    55  49  78 NW14      29.74S
WAHOO          CLOUDY    57  48  72 N15       29.76R
$$



USA.gov is the U.S. government's official web portal to all federal, state and local government web resources and services.